Regional Weather Roundup
Issued by NWS Burlington, VT

Home | Current Version | Previous Version | Text Only | Print | Product List | Glossary On
Versions: 1 2 3 4 5 6 7 8 9 10 11 12 13 14 15 16 17 18 19 20 21 22 23 24 25 26 27 28 29 30 31 32 33 34 35 36 37 38 39 40 41 42 43 44 45 46 47 48 49 50
000
ASUS41 KBTV 300630
RWRBTV
VERMONT REGIONAL WEATHER ROUNDUP
NATIONAL WEATHER SERVICE BURLINGTON VT
200 AM EDT SUN AUG 30 2015

NOTE: "FAIR" INDICATES FEW OR NO CLOUDS BELOW 12,000 FEET WITH NO
SIGNIFICANT WEATHER AND/OR OBSTRUCTIONS TO VISIBILITY.

* THESE REPORTS ARE NOT UNDER NWS QUALITY CONTROL AND/OR DO NOT
  REPORT WEATHER SUCH AS PRECIPITATION AND FOG.

VTZ001>019-300700-
_____VERMONT_____


CITY           SKY/WX    TMP DP  RH WIND       PRES   REMARKS
BURLINGTON     FAIR      66  60  81 CALM      30.05F
6HR MIN TEMP:  65; 6HR MAX TEMP:  73;

MONTPELIER     FAIR      62  59  90 CALM      30.12S
6HR MIN TEMP:  61; 6HR MAX TEMP:  66;

MORRISVILLE    FAIR      64  59  83 CALM      30.08F
6HR MIN TEMP:  62; 6HR MAX TEMP:  68;

ST. JOHNSBURY*   N/A     63  59  87 MISG      30.05F
6HR MIN TEMP:  63; 6HR MAX TEMP:  68;

LYNDONVILLE*   FAIR      59  58  96 CALM      30.09F
6HR MIN TEMP:  60; 6HR MAX TEMP:  67;

MIDDLEBURY*    FAIR      64  61  92 CALM      30.06F
6HR MIN TEMP:  64; 6HR MAX TEMP:  73;

RUTLAND*       FAIR      63  55  77 SE5       30.10S
6HR MIN TEMP:  63; 6HR MAX TEMP:  68;

SPRINGFIELD    FAIR      62  59  90 CALM      30.08F
6HR MIN TEMP:  61; 6HR MAX TEMP:  67;

HIGHGATE*      MOCLDY    63  61  94 CALM      30.04F
6HR MIN TEMP:  63; 6HR MAX TEMP:  68;

NEWPORT*       FAIR      60  59  96 E3        30.08S
6HR MIN TEMP:  60; 6HR MAX TEMP:  64;

BENNINGTON     FAIR      58  56  93 CALM      30.09F FOG
6HR MIN TEMP:  58; 6HR MAX TEMP:  66;

SUTTON*          N/A     59 N/A N/A MISG        N/A
GALLUP MILLS*    N/A     57 N/A N/A MISG        N/A
MT. MANSFIELD*   N/A     54 N/A N/A NW22        N/A

_____LAKE CHAMPLAIN_____


CITY           SKY/WX    TMP DP  RH WIND       PRES   REMARKS
COLCHESTER RF*   N/A     72  61  68 NW8         N/A
DIAMOND ISL*     N/A     70  63  78 SE5         N/A

$$

NYZ007-026>031-035-052-083-300700-
_____NORTHERN NEW YORK_____


CITY           SKY/WX    TMP DP  RH WIND       PRES   REMARKS
PLATTSBURGH    FAIR      67  58  72 CALM      30.04F
6HR MIN TEMP:  65; 6HR MAX TEMP:  70;

SARANAC LAKE   FAIR      58  55  90 SW3       30.09F
6HR MIN TEMP:  57; 6HR MAX TEMP:  66;

MASSENA        FAIR      62  60  93 SW7       30.06F
6HR MIN TEMP:  62; 6HR MAX TEMP:  68; 6HR PCP: TRACE;

OGDENSBURG*    CLEAR     63  61  94 CALM      30.05F FOG
POTSDAM*       CLEAR     63  63 100 CALM      30.06F
WATERTOWN      FAIR      58  56  93 CALM      30.08S FOG
6HR MIN TEMP:  58; 6HR MAX TEMP:  67;

FT DRUM        MOCLDY    62  58  87 S3        30.08F
6HR MIN TEMP:  62; 6HR MAX TEMP:  66;

ALBANY         FAIR      66  59  78 S3        30.08F
6HR MIN TEMP:  64; 6HR MAX TEMP:  75;

GLENS FALLS    FAIR      63  60  90 CALM      30.07S
6HR MIN TEMP:  63; 6HR MAX TEMP:  73;


$$
NHZ002-005-011-300700-
_____NEW HAMPSHIRE_____


CITY           SKY/WX    TMP DP  RH WIND       PRES   REMARKS
LEBANON        FAIR      62  59  90 CALM      30.06F
6HR MIN TEMP:  62; 6HR MAX TEMP:  67;

KEENE          FAIR      59  54  82 CALM      30.08F
6HR MIN TEMP:  61; 6HR MAX TEMP:  66;

MT WASHINGTON  FOG       48  48 100 W30         N/A  VSB 0
6HR MIN TEMP:  46; 6HR MAX TEMP:  48;

PLYMOUTH       FAIR      60  59  96 CALM      30.06F
6HR MIN TEMP:  60; 6HR MAX TEMP:  65;

WHITEFIELD     FAIR      60  57  89 E3        30.07F
6HR MIN TEMP:  60; 6HR MAX TEMP:  65;


$$

_____REGIONAL QUEBEC LOCATIONS_____


CITY           SKY/WX    TMP DP  RH WIND       PRES   REMARKS
MONTREAL       MOCLDY    66  63  88 SW9       30.02F
QUEBEC CITY    CLOUDY    63  61  94 W12       29.98F
SHERBROOKE     CLOUDY    63  59  88 S5        30.05F

_____REGIONAL ONTARIO LOCATIONS_____


CITY           SKY/WX    TMP DP  RH WIND       PRES   REMARKS
OTTAWA         MOCLDY    61  61 100 SW7       30.05S

______KEY______
VSB  - VISIBILITY IN MILES
WCI  - WIND CHILL INDEX
HX   - HEAT INDEX
$$
NNNN



USA.gov is the U.S. government's official web portal to all federal, state and local government web resources and services.